This demonstration page uses our WeatherBlox Daily Observations layout. Learn more.

Left ArrowRight Arrow

36.17497, -115.13722

Hourly Observations for September 9, 2015

Temp ( °F °C ) Dew Point ( °F °C ) Humidity (%) Winds ( mph kmh ) Pressure ( in mb ) Visibility ( mi km ) Precip ( " mm )
12:53 am 00:53 Clear 84 28.9 44 6.7 25 25 NW 3 6 29.87 1012 10 16 N/A
1:53 am 01:53 Clear 83 28.3 45 7.2 26 26 NE 5 7 29.87 1012 10 16 N/A
2:53 am 02:53 Clear 81 27.2 44 6.7 27 27 N 3 6 29.88 1012 10 16 N/A
3:53 am 03:53 Clear 81 27.2 44 6.7 27 27 N 10 17 29.88 1012 10 16 N/A
4:53 am 04:53 Clear 79 26.1 42 5.6 27 27 N 9 15 29.88 1012 10 16 N/A
5:53 am 05:53 Clear 80 26.7 42 5.6 26 26 N 8 13 29.89 1012 10 16 N/A
6:53 am 06:53 Sunny 80 26.7 44 6.7 28 28 NNW 7 11 29.91 1013 10 16 N/A
7:53 am 07:53 Sunny 84 28.9 54 12.2 36 36 NNE 6 9 29.93 1014 10 16 N/A
8:53 am 08:53 Sunny 87 30.6 57 13.9 36 36 E 6 9 29.93 1014 10 16 N/A
9:53 am 09:53 Sunny 91 32.8 56 13.3 31 31 ENE 6 9 29.94 1014 10 16 N/A
10:53 am 10:53 Sunny 92 33.3 57 13.9 31 31 SE 7 11 29.93 1014 10 16 N/A
11:53 am 11:53 Sunny 94 34.4 53 11.7 25 25 SE 7 11 29.91 1013 10 16 N/A
12:25 pm 12:25 Sunny 96 35.6 52 11.1 23 23 N N/A 29.77 1008 10 16 N/A
12:53 pm 12:53 Sunny 96 35.6 51 10.6 22 22 VRB 3 6 29.88 1012 10 16 N/A
1:53 pm 13:53 Sunny 100 37.8 46 7.8 16 16 SE 9 15 29.85 1011 10 16 N/A
2:53 pm 14:53 Sunny 101 38.3 46 7.8 15 15 SW 5 7 29.83 1010 10 16 N/A
3:53 pm 15:53 Sunny 100 37.8 43 6.1 14 14 SSE 3 6 29.81 1009 10 16 N/A
4:53 pm 16:53 Sunny 101 38.3 43 6.1 14 14 ESE 8 13 29.79 1009 10 16 N/A
5:53 pm 17:53 Sunny 100 37.8 42 5.6 14 14 N N/A 29.78 1009 10 16 N/A
6:53 pm 18:53 Sunny 98 36.7 41 5 14 14 SE 5 7 29.79 1009 10 16 N/A
7:53 pm 19:53 Clear 97 36.1 43 6.1 16 16 S 5 7 29.81 1009 10 16 N/A
8:53 pm 20:53 Clear 95 35 47 8.3 19 19 WSW 5 7 29.82 1010 10 16 N/A
9:53 pm 21:53 Clear 93 33.9 47 8.3 21 21 W 7 11 29.82 1010 10 16 N/A
10:53 pm 22:53 Clear 88 31.1 47 8.3 24 24 SE 7 11 29.84 1010 10 16 N/A
11:53 pm 23:53 Clear 88 31.1 47 8.3 24 24 N N/A 29.85 1011 10 16 N/A

Powered by AerisWeather